Flag for France Weather past 2 weeks in Marseille, France

Now
57 °F

Light rain. Broken clouds.


Feels Like: 57 °F
Forecast: 51 / 65 °F
Wind: 2 mph from North

Location: Marseille / Marignane

Current Time: Apr 19, 2015 at 5:07:09 PM

Latest Report: Apr 19, 2015 at 4:30 PM


Visibility: N/A

Pressure: 30.01 "Hg

Humidity: 88%

Dew point: 54 °F

Location of MarseilleLocation

Historic Weather in Marseille — Graph

°F

Marseille temperature yesterday

Maximum temperature yesterday: 70 °F (at 2:00 PM)
Minimum temperature yesterday: 54 °F (at 3:00 AM)
Average temperature yesterday: 62 °F

Past Weeks' High & Low Weather Summary

 TemperatureHumidityPressure
High73 °F (Apr 13, 2:30 PM)94% (Apr 12, 1:30 AM)30.45 "Hg (Apr 12, 1:30 AM)
Low37 °F (Apr 10, 6:30 AM)15% (Apr 10, 2:00 PM)29.74 "Hg (Apr 4, 6:00 PM)
Average57 °F61%30.17 "Hg
* Reported Apr 4 4:00 PM — Apr 19 4:00 PM, Marseille, Weather by CustomWeather, © 2015

Note: Actual official high and low records may vary slightly from our data, if they occured in-between our weather recording intervals... More about our weather records

Advertising

Marseille weather history for previous 24 hours

 ConditionsComfort  
Time TempWeatherWind HumidityBarometerVisibility
4:00 PM
Sun, Apr 19
55 °FLight rain. Broken clouds.9 mph94%30.01 "HgN/A
3:30 PM54 °FLight rain. Broken clouds.10 mph94%30.01 "HgN/A
3:00 PM54 °FRain. Partly sunny.12 mph94%30.01 "Hg5 mi
2:30 PM54 °FRain. Broken clouds.13 mph94%30.01 "Hg2 mi
2:00 PM55 °FLight rain. Broken clouds.18 mph88%30.01 "HgN/A
1:30 PM57 °FLight rain. Partly sunny.16 mph72%29.98 "HgN/A
1:00 PM59 °FPartly sunny.18 mph63%29.98 "HgN/A
12:30 PM61 °FBroken clouds.24 mph59%29.95 "HgN/A
12:00 PM63 °FPartly sunny.23 mph56%29.95 "HgN/A
11:30 AM61 °FPartly sunny.20 mph63%29.95 "HgN/A
11:00 AM61 °FBroken clouds.12 mph72%29.92 "HgN/A
10:30 AM61 °FBroken clouds.14 mph72%29.92 "HgN/A
10:00 AM61 °FBroken clouds.13 mph72%29.92 "HgN/A
9:30 AM61 °FBroken clouds.6 mph77%29.92 "HgN/A
9:00 AM61 °FLight rain. Partly sunny.6 mph77%29.92 "HgN/A
8:30 AM59 °FPartly sunny.3 mph82%29.92 "HgN/A
8:00 AM59 °FSunny.No wind82%29.92 "Hg10 mi
7:30 AM57 °FClear.3 mph82%29.89 "Hg10 mi
7:00 AM57 °FClear.5 mph82%29.89 "Hg10 mi
6:30 AM57 °FClear.2 mph82%29.89 "Hg10 mi
6:00 AM57 °FClear.5 mph82%29.89 "Hg10 mi
5:30 AM57 °FPassing clouds.6 mph82%29.89 "HgN/A
5:00 AM57 °FPassing clouds.7 mph82%29.89 "HgN/A
4:30 AM59 °FClear.12 mph77%29.89 "HgN/A
4:00 AM57 °FClear.8 mph82%29.92 "HgN/A
3:30 AM59 °FClear.3 mph77%29.92 "HgN/A
3:00 AM57 °FClear.7 mph82%29.92 "HgN/A
2:30 AM55 °FClear.7 mph88%29.92 "HgN/A
2:00 AM57 °FClear.8 mph82%29.92 "HgN/A
1:30 AM57 °FClear.8 mph82%29.92 "HgN/A
1:00 AM57 °FClear.8 mph88%29.92 "Hg10 mi
12:30 AM57 °FClear.8 mph88%29.92 "Hg10 mi
12:00 AM57 °FClear.5 mph82%29.92 "Hg10 mi
11:30 PM
Sat, Apr 18
57 °FClear.5 mph82%29.92 "Hg10 mi
11:00 PM57 °FPassing clouds.5 mph82%29.89 "HgN/A
10:47 PM57 °FClear.3 mph77%29.89 "Hg10 mi
10:30 PM59 °FClear.7 mph72%29.89 "Hg10 mi
10:00 PM59 °FPassing clouds.7 mph72%29.89 "HgN/A
9:30 PM61 °FClear.10 mph77%29.89 "Hg10 mi
9:00 PM63 °FSunny.10 mph68%29.86 "Hg10 mi
8:30 PM64 °FSunny.9 mph68%29.86 "Hg10 mi
8:06 PM66 °FSunny.9 mph56%29.86 "Hg10 mi
7:30 PM68 °FSunny.14 mph49%29.86 "Hg10 mi
7:00 PM70 °FSunny.12 mph57%29.86 "Hg10 mi
6:30 PM70 °FSunny.10 mph53%29.86 "Hg10 mi
6:00 PM70 °FSunny.14 mph57%29.86 "Hg10 mi
5:30 PM70 °FSunny.13 mph57%29.86 "Hg10 mi
5:00 PM70 °FSunny.15 mph57%29.86 "Hg10 mi
Weather by CustomWeather, © 2015

See weather overviewHow to use our weather pages